Lid_Strength_Index
-1 -1 -0 3 10 10 13 11 7 8 8 6 5 6 7 6 8 12 2 1 0 0 -0 -0 -1 -1 -1 -1 -1 -1 -1 -1 -1 -1 -1 -1 -1 -1 -1 -1 -1 -2 -1 -1 -1 -1 -1 -1 -1
-0 0 2 5 12 15 13 8 9 7 6 5 6 6 6 7 5 4 3 1 0 0 -0 -0 -0 -1 -1 -1 -1 -1 -1 -1 -1 -1 -1 -1 -1 -1 -1 -1 -2 -2 -1 -1 -1 -1 -1 -1 -1
0 0 6 9 11 14 13 9 8 6 5 6 7 6 6 7 4 4 1 1 0 0 -0 -0 -0 -1 -1 -1 -1 -1 -1 -1 -1 -2 -1 -1 -1 -1 -1 -1 -1 -1 -1 -1 -1 -1 -1 -1 -1
2 3 5 11 13 10 9 8 7 7 6 5 6 7 5 3 4 2 1 0 1 0 -0 -0 -0 -1 -1 -1 -1 -1 -1 -1 -1 -1 -1 -1 -1 -1 -1 -1 -1 -1 -1 -1 -1 -1 -1 -1 -1
2 5 11 12 11 9 7 7 7 7 7 6 6 7 7 3 2 1 1 1 1 0 0 -0 -0 -1 -1 -1 -1 -1 -1 -1 -1 -1 -1 -1 -1 -1 -1 -1 -1 -1 -1 -1 -1 -1 -0 -0 -0
6 6 12 14 11 8 7 6 6 7 6 6 7 7 6 2 2 2 1 1 0 1 -0 -0 1 0 -0 -1 -1 -1 -1 -1 -1 -1 -1 -1 -1 -1 -1 -1 -1 -0 1 1 1 2 2 3 3
7 9 11 11 11 9 7 6 7 7 7 7 5 8 6 4 2 1 1 1 0 0 0 -0 -0 0 1 1 0 -0 -1 -1 -1 -1 -1 -0 -1 -0 1 1 2 2 2 3 3 3 3 3 4
6 8 11 10 11 10 7 7 6 7 7 5 5 8 8 5 2 1 1 1 1 1 0 0 -0 -0 0 1 2 1 1 1 0 1 2 2 2 3 3 3 3 3 3 3 3 4 4 4 4
5 10 12 11 10 9 7 8 6 6 7 6 6 6 4 3 2 3 3 2 2 1 1 1 2 2 2 2 4 3 3 3 3 3 4 4 6 6 6 4 3 4 4 4 4 4 4 3 3
8 11 11 8 8 9 7 7 7 7 8 7 7 6 5 3 3 4 4 4 3 2 1 2 3 3 3 3 3 3 3 4 6 6 6 6 6 6 6 6 5 5 5 5 5 5 3 4 6
7 11 8 8 7 7 7 7 6 7 8 7 8 6 5 4 4 4 4 3 3 2 2 2 3 3 3 3 3 4 4 4 6 6 6 6 7 7 7 7 7 7 5 7 6 6 6 6 6
10 8 8 8 7 8 9 7 7 8 8 6 6 6 6 5 5 4 4 3 3 3 3 3 2 3 4 3 4 4 5 5 6 6 6 6 6 7 7 7 7 7 7 7 7 6 6 6 6
10 9 8 8 9 9 8 9 9 8 7 6 6 6 8 7 5 3 3 3 3 4 3 3 3 3 3 4 4 5 5 6 7 7 6 5 6 7 7 7 8 8 7 7 7 7 7 7 6
10 10 10 9 9 9 10 10 10 9 7 7 6 7 7 7 6 4 3 3 3 3 3 3 3 3 3 4 5 6 6 7 7 7 6 6 7 7 7 8 8 8 7 8 8 8 8 8 7
10 13 12 11 10 11 10 12 11 9 8 8 8 7 7 6 6 6 3 3 3 2 2 3 3 3 4 5 6 6 6 7 7 7 7 7 7 8 8 8 8 8 8 8 8 8 8 8 8
12 12 15 10 10 10 11 15 11 9 9 9 9 9 8 7 6 5 5 3 3 3 2 3 2 4 4 6 6 6 7 7 8 8 8 7 7 8 9 8 8 8 8 8 9 9 9 9 9
12 16 14 13 9 10 11 13 10 9 9 10 9 9 9 8 6 5 5 2 3 3 3 3 4 5 6 6 7 7 7 8 8 8 8 8 8 8 8 8 8 8 9 9 9 9 10 10 10
14 15 13 13 12 11 13 13 10 9 10 10 10 9 9 8 8 6 5 2 3 3 3 4 5 6 6 6 7 8 8 8 8 8 8 8 8 7 8 8 9 9 9 10 10 10 10 10 10
11 12 14 12 10 12 13 14 13 11 11 12 11 11 10 9 7 7 6 5 2 2 4 4 6 6 7 7 8 9 9 10 9 9 8 8 8 8 8 9 9 9 10 10 10 10 10 10 10
11 13 13 11 10 12 13 14 12 10 11 10 10 11 11 10 9 8 8 8 4 3 3 4 6 6 7 7 8 9 9 10 9 9 8 8 8 8 8 9 10 10 10 10 11 11 11 10 11
12 13 13 13 11 10 13 14 13 10 10 9 9 10 10 10 10 10 9 8 8 4 3 4 5 6 6 7 8 9 10 10 11 10 9 9 8 9 9 9 10 10 10 11 11 11 11 12 11
14 10 10 12 13 17 13 20 13 11 11 10 10 11 11 10 10 10 10 10 9 5 3 4 5 6 7 7 9 9 10 10 10 10 9 9 9 9 9 10 10 10 11 11 11 11 11 12 12
11 10 11 12 14 15 15 18 14 11 12 11 11 10 10 10 10 10 10 10 9 8 5 3 5 6 6 7 8 9 10 10 9 9 9 10 10 10 10 10 11 11 11 11 11 12 12 12 12
9 11 11 12 14 22 15 16 15 13 11 11 10 10 10 10 10 10 10 10 10 8 7 5 6 6 5 6 8 9 10 8 9 9 10 11 11 11 11 10 11 11 12 12 12 12 12 12 12
10 13 20 21 20 21 15 17 14 11 10 9 10 10 10 10 10 10 10 11 10 10 8 6 6 7 6 6 9 9 8 8 9 9 10 11 11 12 12 11 12 12 12 11 12 12 12 12 12
12 13 20 25 23 20 16 19 14 10 9 9 9 9 9 10 9 10 10 10 11 11 9 7 7 7 7 7 8 7 8 8 9 9 9 10 11 11 11 11 11 12 12 12 12 12 12 12 11
13 16 11 19 19 21 16 14 10 9 9 9 9 10 11 10 9 9 10 10 10 11 9 8 8 8 8 7 8 7 8 8 9 9 9 10 10 11 11 11 12 12 12 12 12 13 13 12 11
12 10 17 17 25 25 18 16 15 12 11 10 11 12 11 10 10 9 9 10 10 10 9 8 8 8 8 8 8 8 9 9 9 9 10 10 11 11 11 12 12 12 12 12 12 12 12 12 11
14 15 14 13 16 21 22 18 10 11 12 13 12 12 11 10 11 10 9 9 10 10 10 9 8 9 9 8 8 9 10 10 10 10 10 11 11 11 12 12 12 12 12 12 12 12 12 13 13
11 13 13 18 20 17 18 16 10 12 13 13 14 12 10 11 10 10 10 10 10 10 10 10 9 9 9 8 9 10 10 10 11 11 11 11 12 12 12 12 12 12 12 12 12 12 13 13 12